Location: Devore Heights
(34.2372°N, 117.4156°W)
Time: 23:34:57
(UTC+00:00)

Explorer 11/Cluster Stage 4 - Pass Details

Date: 17 September 2024
Orbit: 464 x 1207 km, 28.8° (Epoch: 14 October)

Event Time Altitude Azimuth Distance (km) Brightness Sun altitude
Exits shadow 11:33:16 14° 169° (SSE) 2,092 8.6 -25.3°
Maximum altitude 11:34:59 15° 148° (SSE) 2,061 8.8 -24.9°
Drops below altitude 10° 11:38:25 10° 114° (ESE) 2,577 9.8 -24.3°
Sets 11:42:25 0° 94° (E) 3,695 11.1 -23.5°
